Regional Weather Roundup
Issued by NWS

Home | Current Version | Previous Version | Graphics & Text | Print | Product List | Glossary On
Versions: 1 2 3 4 5 6 7 8 9 10 11 12 13 14 15 16 17 18 19 20 21 22 23 24 25 26 27 28 29 30 31 32 33 34 35 36 37 38 39 40 41 42 43 44 45 46 47 48 49 50
000
ASUS43 KBIS 301502
RWRND

NORTH DAKOTA REGIONAL WEATHER ROUNDUP
NATIONAL WEATHER SERVICE BISMARCK ND
1000 AM CDT TUE AUG 30 2016

NOTE: "FAIR" INDICATES FEW OR NO CLOUDS BELOW 12,000 FEET WITH NO
SIGNIFICANT WEATHER AND/OR OBSTRUCTIONS TO VISIBILITY.


NDZ001>003-009>011-017-301600-
NORTHWEST NORTH DAKOTA

CITY           SKY/WX    TMP DP  RH WIND       PRES   REMARKS
WILLISTON      MOSUNNY   68  46  45 SE5       30.22S
MINOT          SUNNY     64  48  56 S5        30.27S
MINOT AFB      SUNNY     65  49  54 SE3       30.26S
$$

NDZ018>021-031>035-040>046-301600-
SOUTHWEST NORTH DAKOTA

CITY           SKY/WX    TMP DP  RH WIND       PRES   REMARKS
BISMARCK       SUNNY     62  52  69 SE6       30.27F
DICKINSON      SUNNY     68  46  45 SE21      30.23F
GARRISON         N/A     67  50  54 S9        30.27R
HETTINGER ARPT CLOUDY    66  50  56 SE12      30.27S
$$

NDZ004>008-012>016-024-026-027-054-301600-
NORTHEAST NORTH DAKOTA

CITY           SKY/WX    TMP DP  RH WIND       PRES   REMARKS
GRAND FORKS    SUNNY     65  51  60 W5        30.25S
GRND FRKS AFB  SUNNY     66  52  60 VRB3      30.26S
DEVILS LAKE    SUNNY     67  53  61 CALM      30.28S
$$

NDZ022-023-025-028>030-036>039-047>053-301600-
SOUTHEAST NORTH DAKOTA

CITY           SKY/WX    TMP DP  RH WIND       PRES   REMARKS
FARGO          SUNNY     67  55  65 CALM      30.25S
JAMESTOWN      SUNNY     66  52  60 SE5       30.27S
$$





USA.gov is the U.S. government's official web portal to all federal, state and local government web resources and services.